Content
SEND FEEDBACK

Daily
Averages
Monthly
Summary
United States of America

WAHWEAP, ARIZONA


Home > North America > United States > Arizona
Elevation: 3703 feet     Latitude: 36 59N     Longitude: 111 29W

WEATHER
 
SELECT A DAY
Number of Records: 197,188;   Date Range: 1/1/95 - 10/24/14
 
SHARE

PRINT THIS DATA

[ ← Previous Day ]
WEATHER ALMANAC - AUGUST 25, 2013
[ Next Day → ]
[ °C ]   °F
Weather ElementAverageHighLow
Temperature66.4 °F71.1 °F (2:53 am)64.4 °F (10:04 am)
Dewpoint61.1 °F64.4 °F (1:15 pm)55 °F (2:53 am)
Humidity83.9 %94 % (10:04 am)57 % (2:53 am)
Barometer30.10 in30.24 in (10:04 am)29.94 in (2:53 am)
Wind Speed1.3 mph4.6 mph (11:21 am)
Weather ElementAverage
Visibility8.5 mi
Wind DirectionE (88.2 °)

Weather ElementTotal
Precipitation0.67 in
Cooling Degree Days2.8 (Base 65)
Growing Degree Days17.8 (Base 50)
Averaged from 33 records on August 25, 2013
WEATHER CONDITIONS BREAKOUT
WIND DIRECTION BREAKOUT
WEATHER BY HOUR - AUGUST 25, 2013
[ °C ]   °F
Local TimeTemperatureDewpointHumidityBarometerVisibilityWind DirectionWind SpeedGust SpeedPrecipitationEventsConditions
1:53 AM70.0 °F55.9 °F61 %29.95 in10.0 miCalmClear
2:53 AM71.1 °F55.0 °F57 %29.94 in10.0 miCalmClear
3:53 AM70.0 °F55.9 °F61 %29.96 in10.0 miCalmOvercast
4:53 AM70.0 °F55.0 °F59 %29.97 in10.0 miCalmOvercast
5:53 AM68.0 °F57.9 °F70 %30.00 in8.0 miCalm0.00 inRainLight Rain
6:53 AM68.0 °F59.0 °F73 %30.02 in10.0 miSSE (150°)3.5 mph0.00 inMostly Cloudy
7:53 AM66.9 °F60.1 °F79 %30.05 in10.0 miSE (140°)3.5 mph0.00 inOvercast
8:53 AM64.9 °F61.0 °F87 %30.06 in8.0 miEast (80°)3.5 mph0.09 inRainLight Rain
9:53 AM64.9 °F62.1 °F90 %30.09 in2.5 miCalm0.21 inRainHeavy Rain
10:04 AM64.4 °F62.6 °F94 %30.24 in4.0 miCalm0.03 inRainRain
10:53 AM64.9 °F61.0 °F87 %30.09 in7.0 miCalm0.09 inRainLight Rain
11:21 AM66.2 °F62.6 °F88 %30.23 in7.0 miNorth (350°)4.6 mph0.03 inRainLight Rain
11:36 AM66.2 °F62.6 °F88 %30.23 in6.0 miVariable3.5 mph0.04 inRainLight Rain
11:43 AM64.4 °F62.6 °F94 %30.23 in9.0 miWNW (290°)3.5 mph0.04 inRainLight Rain
11:53 AM64.9 °F63.0 °F93 %30.09 in9.0 miWNW (290°)3.5 mph0.04 inRainLight Rain
12:06 PM64.4 °F62.6 °F94 %30.23 in9.0 miCalm0.00 inRainLight Rain
12:14 PM64.4 °F62.6 °F94 %30.23 in10.0 miNorth (360°)3.5 mph0.00 inRainLight Rain
12:53 PM66.0 °F63.0 °F90 %30.07 in10.0 miCalm0.01 inRainLight Rain
1:05 PM66.2 °F62.6 °F88 %30.22 in8.0 miCalm0.00 inRainLight Rain
1:15 PM66.2 °F64.4 °F94 %30.22 in10.0 miCalm0.00 inRainLight Rain
1:53 PM66.0 °F62.1 °F87 %30.07 in9.0 miCalm0.01 inRainLight Rain
2:53 PM66.9 °F64.0 °F90 %30.06 in7.0 miCalm0.00 inRainLight Rain
3:08 PM66.2 °F64.4 °F94 %30.21 in6.0 miNW (320°)3.5 mph0.01 inRainLight Rain
3:44 PM66.2 °F62.6 °F88 %30.20 in8.0 miCalm0.02 inRainLight Rain
3:53 PM66.9 °F64.0 °F90 %30.06 in5.0 miNW (320°)3.5 mph0.02 inRainLight Rain
4:53 PM66.0 °F62.1 °F87 %30.06 in10.0 miCalm0.01 inOvercast
5:53 PM66.0 °F62.1 °F87 %30.06 in10.0 miCalm0.00 inRainLight Rain
6:53 PM66.0 °F62.1 °F87 %30.06 in7.0 miNorth (350°)3.5 mph0.01 inRainLight Rain
7:53 PM64.9 °F62.1 °F90 %30.08 in10.0 miCalm0.01 inMostly Cloudy
8:53 PM66.0 °F61.0 °F84 %30.11 in10.0 miWest (260°)3.5 mph0.00 inRainLight Rain
9:53 PM66.0 °F60.1 °F81 %30.12 in10.0 miCalm0.00 inRainLight Rain
10:53 PM64.9 °F60.1 °F84 %30.11 in10.0 miCalm0.00 inMostly Cloudy
11:53 PM66.0 °F59.0 °F78 %30.10 in10.0 miCalmOvercast
Hourly data recorded from KPGA, located miles away from Wahweap, Arizona







STORIES FROM OUR PARTNERS